STARLINK-32799, 62847

Orbit data source: Space-Track

STARLINK-32799, 62847 is a payload satellite owned by SpaceX/Seattle (US) in LEO that was launched on Mon, 27 Jan 2025 UTC via an FALCON 9 launch vehicle from the Air Force Eastern Test Range (AFETR). Payload-class satellites include a variety of spacecraft equipped with specific instruments for various scientific and technological missions. These include communications satellites like Starlink; space stations such as the ISS; scientific satellites like the Hubble; Earth observation satellites from companies like Planet Labs, Umbra, and HawkEye 360; GPS; miniature CubeSats for education and research; and military/defense satellites.

Loading next visibility...
Identifier
62847, 2025-019U
Orbit
LEO
Last TLE update
20 hours ago
Origin
Manufacturer
SpaceX/Seattle
Mission
Operational Commercial Communications
Bus & Motor
STARLINK V2M, Unknown motor
Mass
730 kg wet, ~700 kg dry
Launch date (UTC)
2025-01-27 (3 months ago)
Launch vehicle
FALCON 9
Launch site
Air Force Eastern Test Range (AFETR)
Object type
Payload
Rocket body
Debris
Shape & HBR
Box + 2 Pan, 29 m
Radar Cross Section
33.884 m², Large (>1 m²)

Expand to show TLE details & history

TLE from 20 hours ago
0 STARLINK-32799
1 62847U 25019U   25128.40536406 -.00000023  00000-0  86838-5 0  9994
2 62847  43.0057  12.8905 0001150 302.7006  57.3735 15.27580165 16533
Epoch: 2025-05-08T09:43Z
Definitive object data (Epoch: 2025-05-08T09:43:43.454Z)
Latitude
-0.00001°
Longitude
0.4831°
Altitude
482.399 km
Speed
7.626 km/s
True Right ascension
00h 51m 33s
True Declination
0° 00' 00"
Sunlit
Object was in daylight at TLE epoch
Visualization TLE readout
Latitude
-30.42424°
Longitude
-145.41546°
Altitude
491.099 km
Speed
7.62 km/s
Apparent Right ascension
18h 38m 39s
Apparent Declination
-73° 16' 53"
Sunlit
Object is in full shadow
Visualization observer readout
Local Sidereal Time
13:41:48
Azimuth
160.57° S
Elevation
-33.678°
Doppler factor
1
Orbital elements
Apogee altitude
485.782 km
Perigee altitude
484.204 km
Semi-major axis
6,863.13 km
Eccentricity
0.000115
Inclination
43.0057°
RAAN
12.8905°
Arg. of periapsis
302.7006°
True anomaly
57.3846°
Mean anomaly
57.3735°
Eccentric anomaly
57.37905°
Mean motion
3.81733 °/min
BSTAR
0.0000086838
Orbital period
94.31 mins
Loading maneuver chart data...
Loading SW <> Apogee altitude chart data...
Loading historical data...
Loading historical data...
Loading historical data...
Loading historical data...
Loading historical data...
Loading historical data...
Loading historical data...

STARLINK-32799 Visibility forecast

Observer location: undefined°, undefined°

Span
Click to sort rows by Start time (UTC) header in descending order
Start Az.
Max El. time (UTC)
Max El. Az.
Max El.
End time (UTC)
End Az.
5 mins2025-05-09 18:53:06.722Z196.439° SSW2025-05-09 18:55:06.722Z153.482° SSE24.485°2025-05-09 18:58:06.722Z91.842° ESE
5 mins2025-05-09 20:32:06.722Z258.745° W2025-05-09 20:34:06.722Z5.273° NNE44.518°2025-05-09 20:37:06.722Z70.501° E
5 mins2025-05-09 22:11:06.722Z293.278° NW2025-05-09 22:13:06.722Z355.069° N37.961°2025-05-09 22:16:06.722Z75.451° E
5 mins2025-05-09 23:50:06.722Z287.714° WNW2025-05-09 23:52:06.722Z279.519° WNW44.401°2025-05-09 23:55:06.722Z110.263° ESE
4 mins2025-05-10 01:29:06.722Z253.35° W2025-05-10 01:31:06.722Z211.17° SW20.386°2025-05-10 01:33:06.722Z171.966° S
|